Tracking 25378 objects as of 22-Jan-2022
HD Live streaming from Space Station
objects crossing your sky now

OPS 6679 (VELA 8)

Track OPS 6679 (VELA 8) now!
OPS 6679 (VELA 8) is classified as:


NORAD ID: 2766
Int'l Code: 1967-040B
Perigee: 58,158.2 km
Apogee: 166,615.6 km
Inclination: 28.1 °
Period: 6,788.2 minutes
Semi major axis: 118757 km
RCS: Unknown
Launch date: April 28, 1967
Source: United States (US)
Launch site: AIR FORCE EASTERN TEST RANGE (AFETR)
aabbcc
Your satellite tracking list
Your tracking list is empty




NASA's NSSDC Master Catalog

Two Line Element Set (TLE):
1 02766U 67040B   21360.98796523 -.00001153  00000-0  00000-0 0  9990
2 02766  28.0749  28.0680 4566324  49.3035   0.3821  0.21213356  2022
Source of the keplerian elements: AFSPC